Tracking 18984 objects as of 24-Feb-2018
HD Live streaming from Space Station
objects crossing your sky now

FENGYUN 1C DEB

Track FENGYUN 1C DEB now!
10-day predictions


NORAD ID: 37455
Int'l Code: 1999-025EHZ
Perigee: 533.1 km
Apogee: 827.3 km
Inclination: 99.4 °
Period: 98.2 minutes
Semi major axis: 7051 km
RCS: 0.0151 m2 (small)
Launch date: May 10, 1999
Source: People's Republic of China (PRC)
Launch site: Taiyaun Space Center, China (TSC)

Note: This is SATELLITE DEBRIS
aabbcc
Your satellite tracking list
Your tracking list is empty




NASA's NSSDC Master Catalog

Two Line Element Set (TLE):
1 37455U 99025EHZ 18045.68060215  .00000987  00000-0  14051-3 0  9993
2 37455  99.4290 208.5543 0208655 277.8948  79.8616 14.66252975427251
Source of the keplerian elements: AFSPC